Location: *
(55.5817°S, 142.4781°W)
Time: 07:43:12
(UTC+00:00)

RESURS DK-1 - Pass Details

Date: 29 April 2025
Orbit: 529 x 538 km, 69.9° (Epoch: 24 May)

Event Time Altitude Azimuth Distance (km) Brightness Sun altitude
Exits shadow 16:07:36 - 238° (WSW) 2,022 4.6 -6.5°
Reaches altitude 10° 16:08:18 10° 245° (WSW) 1,818 4.3 -6.4°
Maximum altitude 16:11:01 18° 287° (WNW) 1,397 3.9 -6.0°
Drops below altitude 10° 16:13:42 10° 329° (NNW) 1,803 4.8 -5.7°
Sets 16:16:26 0° 349° (NNW) 2,687 5.9 -5.3°
